Charlotte, NC

6:28 PM EST on February 22, 2018 (GMT -0500)
Charlotte-Douglas International

Weather History for KCLT - June, 2013

Change the Weather History Date:

Thursday, June 27, 2013

  Actual Average Record
Temperature  
Mean Temperature 81 °F 78 °F  
Max Temperature 89 °F 88 °F 103 °F (1954)
Min Temperature 72 °F 67 °F 56 °F (2012)
Degree Days  
Heating Degree Days 0 0  
Month to date heating degree days 0 0  
Since 1 June heating degree days 0 0  
Since 1 July heating degree days 3221 3385  
Cooling Degree Days 16 13  
Month to date cooling degree days 307 272  
Year to date cooling degree days 476 435  
Since 1 June cooling degree days 307 272  
Growing Degree Days 30 (Base 50)    
Moisture  
Dew Point 72 °F    
Average Humidity 82    
Maximum Humidity 100    
Minimum Humidity 63    
Precipitation  
Precipitation 0.32 in 0.11 in 1.86 in (2005)
Month to date precipitation 6.61 3.41  
Year to date precipitation 25.36 20.37  
Snow  
Snow 0.00 in 0.00 in 0.00 in ()
Month to date snowfall 0.0 0.0  
Since 1 June snowfall 0.0 0.0  
Since 1 July snowfall 2.7 4.3  
Snow Depth 0.00 in    
Sea Level Pressure  
Sea Level Pressure 29.84 in    
Wind  
Wind Speed 7 mph (SW)    
Max Wind Speed 16 mph    
Max Gust Speed 20 mph    
Visibility 10 miles    
Events Rain , Thunderstorm    
T = Trace of Precipitation, MM = Missing Value Source: NWS Daily Summary

Daily Weather History Graph

Daily Weather History Graph

Search for Another Location

Airport or City:

Trip Planner

Search our weather history database for the weather conditions in past years. The results will help you decide how hot, cold, wet, or windy it might be!

Date:

Astronomy

Jun. 27, 2013 Rise Set
Actual Time 6:11 AM EDT 8:42 PM EDT
Civil Twilight 5:41 AM EDT 9:12 PM EDT
Nautical Twilight 5:04 AM EDT 9:48 PM EDT
Astronomical Twilight 4:23 AM EDT 10:29 PM EDT
Moon 11:51 PM EDT (6/27) 10:59 AM EDT (6/27)
Length of Visible Light 15h 30m
Length of Day
14h 30m
Waning Gibbous, 76% of the Moon is Illuminated
Jun 27
Waning Gibbous
Jun 30
Last Quarter
Jul 8
New
Jul 15
First Quarter
Jul 22
Full

Hourly Weather History & Observations

Time (EDT) Temp. Heat Index Dew Point Humidity Pressure Visibility Wind Dir Wind Speed Gust Speed Precip Events Conditions
12:52 AM 72.0 °F - 68.0 °F 87% 29.95 in 10.0 mi SSE 5.8 mph - N/A   Scattered Clouds
1:52 AM 72.0 °F - 69.1 °F 91% 29.93 in 10.0 mi South 5.8 mph - N/A   Mostly Cloudy
2:38 AM 73.4 °F - 71.6 °F 94% 29.94 in 10.0 mi South 6.9 mph - N/A   Mostly Cloudy
2:52 AM 73.9 °F - 71.1 °F 91% 29.91 in 10.0 mi SSW 9.2 mph - N/A   Overcast
3:33 AM 75.2 °F - 71.6 °F 89% 29.90 in 10.0 mi SW 10.4 mph - N/A   Overcast
3:52 AM 75.0 °F - 73.0 °F 94% 29.88 in 10.0 mi SW 11.5 mph - N/A   Overcast
4:08 AM 75.2 °F - 73.4 °F 94% 29.90 in 10.0 mi SW 8.1 mph - N/A   Overcast
4:52 AM 75.0 °F - 73.0 °F 94% 29.86 in 10.0 mi SW 6.9 mph - N/A   Mostly Cloudy
5:13 AM 75.2 °F - 73.4 °F 94% 29.89 in 10.0 mi SW 8.1 mph - N/A   Scattered Clouds
5:52 AM 73.9 °F - 72.0 °F 93% 29.87 in 10.0 mi SW 6.9 mph - N/A   Partly Cloudy
6:25 AM 75.2 °F - 73.4 °F 94% 29.89 in 10.0 mi SW 10.4 mph - N/A   Mostly Cloudy
6:52 AM 75.0 °F - 73.0 °F 94% 29.86 in 10.0 mi SW 10.4 mph - N/A   Overcast
7:52 AM 75.9 °F - 72.0 °F 87% 29.86 in 10.0 mi SW 5.8 mph - N/A   Mostly Cloudy
8:09 AM 75.2 °F - 71.6 °F 89% 29.88 in 10.0 mi WSW 8.1 mph - N/A   Mostly Cloudy
8:52 AM 77.0 °F - 71.1 °F 82% 29.86 in 10.0 mi SW 6.9 mph - N/A   Mostly Cloudy
9:52 AM 78.1 °F - 70.0 °F 76% 29.86 in 10.0 mi SW 9.2 mph - N/A   Overcast
10:52 AM 82.0 °F 87.9 °F 73.9 °F 76% 29.84 in 10.0 mi SW 9.2 mph - N/A   Mostly Cloudy
11:52 AM 82.9 °F 88.0 °F 72.0 °F 69% 29.84 in 10.0 mi SW 12.7 mph 17.3 mph N/A   Scattered Clouds
12:52 PM 84.9 °F 91.4 °F 73.0 °F 67% 29.83 in 10.0 mi SW 12.7 mph 18.4 mph N/A   Mostly Cloudy
1:52 PM 86.0 °F 93.0 °F 73.0 °F 65% 29.83 in 10.0 mi SW 13.8 mph 19.6 mph N/A   Mostly Cloudy
2:52 PM 87.1 °F 94.5 °F 73.0 °F 63% 29.80 in 10.0 mi SSW 10.4 mph - N/A   Mostly Cloudy
3:52 PM 88.0 °F 96.5 °F 73.9 °F 63% 29.77 in 10.0 mi SSW 9.2 mph - N/A   Mostly Cloudy
4:52 PM 82.0 °F 87.4 °F 73.0 °F 74% 29.77 in 7.0 mi NW 4.6 mph - 0.01 in Rain Light Rain
5:52 PM 84.9 °F 91.4 °F 73.0 °F 67% 29.74 in 10.0 mi SW 4.6 mph - 0.01 in   Mostly Cloudy
6:52 PM 82.9 °F 89.4 °F 73.9 °F 74% 29.74 in 10.0 mi SW 11.5 mph 17.3 mph N/A   Mostly Cloudy
7:02 PM 82.4 °F 88.2 °F 73.4 °F 74% 29.77 in 10.0 mi West 9.2 mph - N/A Thunderstorm Thunderstorm
7:52 PM 75.9 °F - 71.1 °F 85% 29.78 in 10.0 mi West 4.6 mph - 0.00 in Thunderstorm Thunderstorm
8:20 PM 75.2 °F - 71.6 °F 89% 29.81 in 1.8 mi North 6.9 mph - 0.05 in Rain , Thunderstorm Heavy Thunderstorms and Rain
8:36 PM 75.2 °F - 73.4 °F 94% 29.79 in 4.0 mi West 3.5 mph - 0.26 in Rain , Thunderstorm Thunderstorms and Rain
8:52 PM 75.0 °F - 73.0 °F 94% 29.78 in 10.0 mi West 3.5 mph - 0.27 in Rain , Thunderstorm Light Thunderstorms and Rain
8:59 PM 75.2 °F - 73.4 °F 94% 29.80 in 9.0 mi Calm Calm - 0.00 in Rain Light Rain
9:52 PM 75.9 °F - 75.0 °F 97% 29.78 in 10.0 mi South 6.9 mph - 0.03 in   Mostly Cloudy
10:52 PM 75.9 °F - 73.9 °F 94% 29.79 in 10.0 mi Calm Calm - N/A   Mostly Cloudy
11:52 PM 73.9 °F - 73.0 °F 97% 29.77 in 10.0 mi Calm Calm - N/A   Scattered Clouds